Wind_Speed
2 1 1 2 4 4 2 3 4 4 4 5 6 7 7 7 7 8 8 8 8 8 8 7 7 7 6 6 6 6 5 5 6 5 5 5 5 5 5 4 4 4 4 4 3 2 1 1 2
2 1 1 2 3 1 1 2 3 3 4 4 5 6 7 7 7 7 8 8 8 7 7 7 7 6 6 6 6 6 5 5 5 5 5 5 5 5 5 5 4 4 3 3 3 3 2 1 2
3 1 1 2 2 2 1 0 1 3 3 4 5 6 6 7 7 7 8 7 8 7 7 7 7 6 7 6 6 6 6 5 5 4 4 5 5 5 5 5 5 4 3 3 4 4 3 2 2
3 2 2 1 2 3 2 1 0 2 3 4 5 5 6 6 7 7 8 7 7 7 7 7 7 7 7 6 6 6 5 5 5 5 4 5 5 4 5 5 5 4 4 3 4 3 3 2 2
4 3 2 3 4 4 3 2 1 1 3 4 4 5 6 6 6 7 7 8 7 7 7 7 7 7 6 6 6 6 5 5 5 4 4 4 4 4 5 5 5 5 4 4 4 4 3 2 2
5 4 3 5 6 5 4 3 2 1 3 3 4 5 5 6 6 6 7 7 7 6 6 7 7 6 6 6 5 5 5 5 5 4 4 4 4 4 4 4 5 5 5 5 5 5 4 3 3
6 5 6 6 7 6 5 3 3 2 2 3 3 4 4 5 5 6 6 6 6 6 7 7 7 6 6 6 5 5 5 5 5 5 4 4 4 3 4 4 4 4 4 5 5 5 4 3 3
7 6 7 7 7 8 6 5 4 3 3 3 3 3 3 4 4 5 5 6 6 5 6 6 6 6 6 6 6 5 5 5 5 5 5 4 4 4 4 4 4 4 4 5 5 6 5 4 4
8 7 8 9 8 8 7 6 4 4 3 3 3 3 3 3 3 4 5 5 5 5 5 6 6 5 5 6 6 6 5 5 5 5 5 4 4 4 4 4 4 4 5 4 5 6 5 4 4
10 9 10 10 9 8 7 7 5 5 5 4 3 3 2 2 3 3 4 5 5 5 5 6 6 5 5 5 6 6 6 6 5 5 4 4 4 4 4 4 4 5 5 4 4 5 4 4 4
10 11 11 10 9 9 8 7 6 6 6 4 3 2 2 2 3 3 4 4 5 5 5 6 6 6 5 5 5 6 6 6 6 5 4 5 5 5 5 5 5 5 4 5 4 4 4 4 4
12 12 11 11 10 10 9 8 7 7 6 4 3 3 3 2 3 4 4 5 6 6 6 6 6 6 5 5 5 6 6 6 6 5 5 5 5 6 6 6 6 5 5 5 5 4 5 5 5
13 13 12 11 11 10 10 9 8 8 6 5 4 4 3 3 4 4 5 6 7 8 8 7 6 6 6 6 6 6 6 6 6 6 6 5 6 6 7 6 6 5 5 6 6 5 6 6 6
13 13 13 12 12 11 10 10 9 9 8 6 5 5 5 4 5 5 6 7 8 9 8 7 6 6 6 6 6 6 7 7 7 6 6 6 7 7 7 6 6 6 6 6 6 6 6 6 6
13 12 12 12 12 12 11 11 10 9 9 8 7 6 6 6 7 7 8 8 8 8 7 7 7 7 7 7 7 7 8 7 7 7 7 7 7 7 7 7 8 7 7 8 8 8 8 8 7
13 12 12 13 13 13 12 11 11 11 10 9 9 9 8 8 8 8 8 9 9 9 8 7 8 7 7 7 8 8 8 8 8 8 8 8 8 8 8 8 8 8 8 9 9 9 9 9 8
13 13 13 14 14 13 13 12 13 12 11 11 10 10 10 10 9 9 9 9 9 9 9 8 8 8 7 8 8 8 9 9 9 9 10 9 9 9 9 9 9 9 9 10 10 10 9 9 9
14 14 15 15 15 14 14 14 14 14 13 12 12 12 11 11 10 10 10 10 10 10 10 9 9 9 8 8 8 8 9 9 9 10 10 10 10 9 9 10 10 10 11 11 12 11 10 10 10
16 15 15 16 16 15 16 15 15 15 14 14 13 13 13 12 12 11 11 11 11 11 11 11 10 10 9 8 8 9 10 10 10 10 10 10 10 10 10 10 10 11 12 12 12 12 11 11 11
17 16 16 17 17 16 17 17 16 16 15 15 14 14 14 13 12 12 12 12 13 12 13 12 11 11 11 10 9 10 10 10 11 12 12 12 12 11 10 10 11 11 12 12 12 12 12 12 13
17 16 17 18 18 17 17 17 16 16 17 16 15 15 15 14 13 13 13 13 14 14 14 13 13 12 11 11 11 11 12 12 12 12 13 13 13 12 11 11 12 12 12 12 12 13 13 14 14
17 17 18 18 17 17 17 16 17 16 17 17 17 17 17 16 15 15 15 15 15 15 14 13 13 13 12 12 12 13 13 13 13 13 14 14 14 13 13 13 13 13 13 13 14 14 15 15 14
18 18 18 18 17 18 17 17 17 17 17 18 18 18 18 18 17 17 16 16 15 15 14 14 14 14 13 13 13 14 15 14 14 14 14 14 13 13 13 14 14 14 14 14 15 15 16 15 15
19 19 18 18 18 18 17 16 16 18 17 17 18 18 18 18 18 18 18 17 17 16 15 15 15 15 15 15 15 15 15 15 15 15 14 13 13 13 14 14 14 15 16 16 16 16 16 16 16
19 18 17 18 18 18 18 18 17 17 17 16 16 17 17 17 18 18 18 18 17 17 17 15 16 16 16 16 16 16 16 16 15 15 15 14 14 15 15 15 15 16 16 17 17 16 17 17 17
20 19 19 18 17 16 19 18 17 17 16 16 16 17 17 18 18 18 19 19 18 18 18 17 17 17 17 17 17 17 16 16 16 15 15 15 16 15 15 16 16 16 17 17 16 16 16 17 17
21 21 20 19 18 18 19 19 17 15 15 16 16 17 17 18 18 18 18 19 19 19 19 17 17 17 18 17 17 17 17 16 16 16 16 16 16 15 15 15 15 16 17 17 16 16 16 16 16
22 22 22 21 20 19 19 19 18 15 14 14 16 17 17 18 18 18 18 18 18 19 18 18 17 17 18 18 18 18 17 17 17 17 16 16 16 16 16 16 16 16 16 17 17 17 17 17 17
23 24 23 22 22 20 18 17 18 17 16 17 18 18 18 18 18 18 18 18 18 18 18 18 18 18 19 19 19 19 19 17 18 17 17 17 17 17 17 17 17 17 17 18 18 17 17 17 18
24 24 24 23 23 22 21 19 19 19 18 18 19 19 19 19 18 18 18 18 18 19 19 18 19 19 20 20 20 20 20 19 19 18 18 18 18 17 17 17 17 17 17 18 18 18 18 18 18
Wind_Direction
154 140 128 106 79 64 60 63 63 57 60 56 50 46 47 44 43 40 37 36 36 33 29 24 21 20 24 29 33 32 36 37 37 38 34 31 33 33 31 24 30 29 15 3 355 357 348 309 281
184 169 162 125 97 75 351 63 61 53 53 51 45 39 40 38 36 37 34 34 32 30 29 24 17 15 16 19 22 26 30 29 30 31 32 31 32 35 33 27 21 23 13 3 3 360 347 314 299
195 184 159 133 156 197 244 327 40 39 42 40 38 32 30 32 32 32 30 31 30 29 27 21 14 11 11 14 16 20 21 23 27 28 31 31 30 34 33 29 25 20 18 8 4 357 355 329 300
202 201 182 183 230 232 245 253 354 21 27 26 29 27 28 28 30 29 27 25 25 26 22 17 13 11 10 11 13 16 22 23 28 30 30 31 32 32 33 30 31 22 14 8 3 357 353 334 299
211 210 204 238 244 244 255 257 274 15 11 14 17 13 19 22 25 23 21 20 21 21 19 14 11 8 7 8 11 17 23 25 26 27 28 31 35 33 32 27 23 22 19 12 359 353 342 334 322
219 210 217 234 244 250 259 260 265 335 358 5 5 4 12 17 20 20 20 20 23 24 21 15 10 8 7 9 12 16 22 24 25 27 30 30 31 26 24 19 16 15 17 8 357 355 347 347 337
218 212 219 234 242 248 257 263 269 298 323 346 352 355 6 11 17 19 20 21 24 22 20 18 16 13 9 9 11 15 21 24 24 20 16 11 9 12 12 12 9 7 8 5 6 360 354 348 339
219 217 227 233 237 246 252 261 276 290 313 334 340 340 354 6 14 19 19 22 27 23 19 15 13 14 12 11 9 11 16 18 18 15 9 2 359 1 0 357 357 356 358 1 1 357 354 354 347
220 218 231 232 234 243 243 252 265 277 294 319 332 331 334 347 5 21 22 20 21 20 15 8 3 5 6 6 7 5 3 5 6 4 2 360 358 354 350 351 349 348 350 355 352 350 349 349 350
219 219 228 230 232 234 237 245 254 265 277 293 318 330 335 338 353 10 9 5 4 6 4 357 354 355 356 358 1 357 354 353 351 354 357 355 351 348 347 347 344 344 345 348 353 353 350 345 338
224 223 229 233 236 235 238 243 248 254 262 276 299 311 329 338 347 351 346 346 346 345 344 344 344 345 346 349 349 350 346 344 344 346 347 348 347 346 343 339 335 335 337 341 347 343 342 344 331
233 230 234 238 239 239 239 242 243 246 251 265 289 299 308 322 327 326 329 331 329 328 327 331 333 332 331 336 335 336 337 334 337 340 335 336 340 340 334 331 331 327 325 328 332 327 327 328 328
237 234 236 239 239 240 240 240 238 241 244 249 268 288 287 303 304 311 319 319 320 318 317 320 320 326 328 327 329 326 325 325 327 325 321 326 330 331 330 326 326 324 319 321 323 319 320 319 320
239 237 238 240 239 238 240 242 238 240 238 243 255 271 278 291 299 302 309 312 314 317 307 307 316 321 324 320 318 313 312 312 314 315 312 314 317 317 319 319 317 316 315 313 315 311 310 311 309
238 238 237 238 236 236 240 243 242 241 242 247 254 265 275 286 289 296 303 310 314 320 310 299 305 310 315 312 308 304 302 300 302 305 306 308 310 308 308 311 313 310 312 312 310 307 303 303 301
237 239 239 240 239 239 240 245 247 243 247 255 260 267 274 278 283 287 293 299 305 311 312 303 303 298 301 305 305 302 298 295 296 299 299 300 303 303 304 304 308 304 306 311 311 306 303 301 298
238 237 239 242 243 242 242 244 250 248 253 259 262 265 273 275 279 282 287 295 299 304 306 303 302 298 295 299 299 298 299 295 292 291 293 292 294 298 301 301 301 299 302 306 309 306 305 304 300
236 236 239 242 244 242 242 243 248 251 254 258 261 262 267 271 275 279 284 290 297 298 298 298 297 301 298 296 296 296 296 293 292 290 287 289 290 294 298 299 295 295 298 301 305 304 302 299 297
232 232 238 243 243 241 241 244 250 254 254 255 259 262 264 267 270 275 282 286 294 297 297 298 298 304 304 302 297 297 295 293 295 295 286 283 284 290 294 295 291 293 297 301 303 302 300 296 294
232 233 239 245 245 242 243 246 250 255 257 257 261 262 261 263 267 274 281 283 290 296 293 294 296 300 301 300 297 296 298 295 296 297 293 288 286 286 288 292 294 295 299 303 302 301 298 295 293
233 233 237 243 247 247 249 253 254 254 257 257 259 261 261 261 266 274 278 284 289 291 289 290 293 298 301 300 300 299 297 296 296 298 297 293 293 291 290 288 292 294 296 299 301 302 301 296 293
234 235 238 243 246 251 252 255 258 256 258 258 259 260 260 259 264 271 277 283 287 288 288 286 288 293 296 297 300 301 299 296 295 297 295 295 295 293 292 292 290 292 295 298 299 300 299 298 293
233 237 241 246 249 252 256 256 259 260 261 262 260 258 258 259 263 269 275 280 283 286 286 283 285 289 292 293 296 299 301 297 295 294 293 293 293 290 293 295 294 290 290 293 297 299 299 300 298
236 240 245 248 251 254 257 259 259 260 261 262 259 257 257 259 262 266 273 276 279 283 284 282 282 286 289 291 293 295 298 299 298 295 292 292 291 288 291 295 294 293 292 293 295 297 296 297 296
237 240 247 251 254 258 259 259 258 260 260 257 257 256 256 258 260 264 270 273 276 279 279 278 281 284 288 291 292 292 295 298 297 292 289 288 288 286 287 290 293 294 293 293 294 295 294 295 293
239 239 241 246 253 258 262 260 262 264 257 254 255 257 258 261 262 265 269 270 272 275 276 274 279 283 286 288 289 289 292 295 296 291 290 288 288 288 287 289 290 291 291 294 293 294 297 295 291
239 241 242 246 249 252 258 265 267 266 260 254 252 256 261 263 264 266 268 268 270 272 274 274 278 284 286 288 289 288 288 290 294 293 291 289 285 284 285 288 291 293 291 293 294 293 296 295 293
240 242 242 244 249 254 261 267 269 265 262 256 254 258 262 262 263 266 269 268 268 270 271 273 277 282 286 285 284 284 285 287 292 293 291 291 288 285 284 288 291 294 294 294 294 293 293 294 292
241 242 244 246 250 253 259 263 265 264 261 259 257 258 261 261 263 265 267 268 268 270 272 274 276 282 284 287 284 283 285 288 289 290 290 291 289 284 283 286 289 290 292 293 294 294 292 292 291
244 245 246 248 252 255 257 259 262 264 263 261 259 258 258 260 262 262 265 267 269 272 274 276 278 282 286 287 284 282 284 285 287 290 290 290 287 283 282 285 287 289 292 293 295 295 294 294 292
Height
5908 5909 5909 5911 5913 5914 5913 5912 5911 5910 5910 5909 5908 5907 5906 5905 5905 5906 5903 5900 5899 5898 5896 5896 5895 5894 5892 5891 5890 5889 5887 5886 5885 5884 5883 5882 5881 5879 5878 5878 5877 5875 5874 5874 5873 5872 5872 5871 5871
5908 5909 5910 5912 5914 5914 5913 5912 5911 5910 5910 5909 5908 5907 5906 5905 5904 5903 5901 5900 5899 5898 5897 5896 5895 5894 5893 5891 5890 5888 5887 5886 5885 5884 5883 5882 5881 5879 5878 5878 5876 5875 5874 5873 5873 5872 5871 5870 5870
5908 5909 5911 5912 5913 5914 5913 5912 5911 5910 5909 5908 5908 5907 5906 5905 5904 5903 5902 5901 5900 5898 5897 5896 5895 5894 5893 5891 5890 5889 5887 5886 5885 5884 5882 5881 5880 5879 5878 5877 5876 5875 5874 5873 5872 5872 5871 5870 5870
5908 5910 5912 5913 5912 5912 5912 5912 5911 5910 5909 5909 5908 5907 5906 5905 5904 5903 5902 5901 5900 5898 5897 5896 5895 5894 5893 5891 5890 5888 5887 5886 5885 5883 5882 5881 5880 5879 5879 5877 5876 5875 5874 5873 5872 5871 5870 5870 5869
5908 5910 5912 5912 5911 5911 5911 5911 5911 5910 5909 5908 5908 5907 5906 5905 5904 5903 5902 5901 5900 5898 5897 5896 5895 5894 5893 5891 5890 5888 5887 5886 5884 5883 5882 5881 5880 5879 5878 5877 5876 5875 5874 5873 5872 5871 5870 5869 5869
5908 5910 5912 5911 5910 5910 5910 5910 5910 5910 5909 5908 5908 5907 5906 5905 5904 5903 5902 5901 5899 5899 5898 5896 5895 5894 5893 5891 5890 5888 5887 5886 5884 5883 5882 5881 5880 5879 5878 5877 5876 5875 5874 5872 5871 5870 5869 5869 5868
5907 5909 5910 5910 5910 5910 5910 5910 5909 5909 5909 5908 5907 5907 5905 5905 5904 5903 5902 5900 5899 5899 5898 5897 5895 5894 5893 5891 5890 5889 5887 5886 5884 5883 5882 5881 5880 5879 5878 5877 5876 5875 5874 5872 5871 5870 5869 5868 5868
5905 5908 5908 5909 5909 5909 5909 5909 5909 5909 5908 5908 5907 5907 5906 5905 5904 5903 5902 5900 5899 5899 5898 5896 5895 5894 5892 5891 5890 5889 5887 5886 5884 5883 5882 5881 5880 5879 5878 5877 5876 5875 5874 5872 5871 5870 5869 5868 5867
5904 5907 5907 5907 5907 5908 5908 5908 5908 5908 5907 5907 5907 5906 5905 5904 5903 5903 5902 5901 5900 5898 5897 5896 5895 5893 5892 5891 5890 5888 5887 5886 5884 5883 5882 5880 5879 5878 5877 5876 5875 5874 5873 5872 5871 5870 5869 5868 5867
5902 5905 5905 5905 5906 5906 5907 5907 5907 5907 5907 5906 5906 5905 5905 5904 5903 5902 5901 5900 5899 5898 5897 5896 5894 5893 5892 5891 5889 5888 5886 5885 5884 5882 5881 5880 5879 5878 5877 5876 5875 5874 5873 5872 5871 5870 5869 5868 5867
5900 5902 5902 5903 5904 5904 5905 5906 5906 5906 5906 5906 5905 5905 5904 5903 5903 5902 5901 5900 5899 5898 5896 5895 5894 5893 5891 5890 5888 5887 5886 5884 5883 5882 5881 5879 5878 5877 5876 5875 5874 5873 5872 5871 5870 5869 5868 5867 5866
5898 5899 5900 5901 5902 5903 5903 5904 5904 5904 5905 5905 5904 5904 5903 5903 5902 5901 5900 5899 5898 5897 5896 5894 5893 5892 5890 5889 5888 5886 5885 5884 5882 5881 5880 5879 5878 5877 5875 5874 5873 5872 5871 5870 5869 5869 5868 5867 5865
5896 5897 5898 5899 5900 5901 5902 5902 5903 5903 5903 5903 5903 5903 5902 5901 5901 5900 5899 5899 5897 5896 5895 5893 5892 5891 5889 5888 5887 5885 5884 5883 5881 5880 5879 5878 5877 5875 5874 5873 5872 5871 5870 5869 5869 5868 5867 5866 5865
5893 5894 5895 5897 5898 5899 5900 5900 5901 5901 5901 5901 5901 5901 5901 5900 5900 5899 5898 5897 5896 5895 5893 5892 5890 5889 5888 5887 5885 5884 5883 5881 5880 5879 5878 5876 5875 5874 5873 5872 5872 5871 5869 5868 5867 5867 5866 5865 5864
5890 5892 5893 5894 5895 5896 5898 5899 5899 5899 5899 5900 5900 5900 5900 5899 5899 5898 5897 5896 5895 5893 5892 5891 5889 5888 5886 5885 5884 5882 5881 5880 5879 5877 5876 5875 5874 5873 5872 5871 5870 5869 5868 5867 5866 5865 5864 5863 5863
5888 5890 5891 5892 5893 5894 5897 5897 5897 5897 5897 5898 5898 5898 5898 5898 5897 5897 5896 5895 5893 5892 5891 5889 5888 5886 5885 5883 5882 5880 5879 5878 5877 5876 5875 5874 5872 5871 5870 5870 5869 5867 5866 5865 5864 5863 5862 5862 5861
5885 5888 5889 5890 5890 5891 5893 5894 5894 5894 5895 5896 5896 5896 5896 5896 5896 5895 5894 5893 5892 5890 5889 5887 5886 5884 5883 5881 5880 5878 5877 5876 5875 5874 5873 5872 5871 5870 5869 5868 5867 5865 5865 5864 5863 5861 5860 5860 5859
5884 5885 5886 5886 5887 5888 5889 5891 5891 5891 5892 5893 5893 5893 5893 5893 5893 5893 5892 5891 5890 5888 5887 5886 5884 5882 5881 5879 5878 5876 5875 5874 5873 5871 5870 5869 5869 5868 5866 5866 5865 5864 5863 5862 5861 5860 5859 5858 5857
5879 5881 5882 5883 5884 5885 5886 5887 5888 5888 5889 5890 5890 5890 5890 5891 5891 5890 5890 5889 5888 5886 5885 5883 5882 5880 5879 5877 5875 5874 5873 5872 5871 5869 5868 5867 5866 5865 5864 5863 5862 5862 5861 5859 5858 5857 5856 5855 5854
5876 5878 5879 5879 5880 5882 5883 5884 5885 5885 5886 5887 5887 5887 5887 5887 5887 5887 5887 5886 5885 5884 5883 5881 5880 5878 5877 5875 5874 5872 5871 5870 5869 5867 5866 5864 5863 5862 5861 5861 5860 5859 5858 5857 5856 5855 5853 5852 5851
5872 5874 5875 5876 5876 5878 5880 5881 5881 5882 5882 5883 5883 5884 5884 5884 5884 5884 5884 5883 5882 5881 5880 5879 5877 5876 5875 5873 5872 5870 5869 5868 5867 5865 5864 5863 5861 5859 5859 5858 5858 5856 5855 5854 5853 5852 5851 5849 5848
5869 5870 5871 5872 5874 5875 5877 5878 5878 5878 5878 5879 5880 5880 5880 5881 5881 5881 5880 5880 5879 5878 5877 5876 5875 5874 5872 5871 5870 5868 5867 5865 5864 5863 5861 5860 5859 5858 5856 5855 5854 5853 5852 5851 5850 5849 5847 5846 5844
5865 5866 5867 5868 5870 5872 5872 5874 5876 5874 5874 5875 5875 5876 5876 5877 5877 5877 5877 5876 5875 5875 5874 5873 5872 5871 5870 5869 5867 5866 5864 5863 5861 5860 5859 5857 5856 5855 5854 5852 5851 5850 5849 5848 5847 5845 5844 5842 5841
5860 5862 5863 5865 5867 5868 5869 5870 5872 5870 5870 5870 5871 5871 5872 5872 5873 5873 5873 5872 5872 5871 5870 5869 5868 5868 5867 5866 5864 5863 5862 5860 5859 5857 5856 5854 5853 5852 5851 5849 5848 5847 5845 5844 5843 5841 5840 5838 5837
5856 5859 5861 5862 5863 5865 5865 5865 5867 5866 5866 5866 5866 5866 5867 5868 5868 5868 5868 5868 5868 5867 5866 5866 5865 5864 5863 5862 5861 5860 5858 5857 5855 5854 5852 5851 5849 5848 5847 5846 5845 5843 5842 5840 5838 5837 5836 5834 5833
5851 5855 5858 5860 5862 5862 5860 5861 5862 5861 5861 5861 5862 5862 5863 5863 5863 5864 5864 5863 5863 5863 5862 5862 5861 5861 5860 5859 5858 5856 5855 5853 5852 5850 5848 5847 5846 5844 5843 5842 5841 5839 5837 5836 5834 5833 5832 5830 5829
5847 5849 5852 5854 5855 5857 5857 5856 5857 5856 5856 5857 5857 5858 5858 5858 5859 5859 5859 5859 5859 5858 5858 5858 5857 5857 5856 5855 5853 5852 5851 5850 5848 5846 5845 5843 5842 5840 5839 5838 5837 5835 5833 5831 5830 5829 5827 5826 5824
5842 5844 5846 5848 5850 5851 5852 5852 5853 5852 5852 5853 5853 5853 5853 5853 5854 5854 5854 5854 5854 5854 5854 5854 5853 5853 5852 5851 5849 5848 5847 5845 5844 5842 5841 5839 5838 5836 5835 5834 5833 5831 5829 5828 5826 5825 5823 5822 5820
5836 5838 5840 5843 5845 5847 5848 5850 5847 5847 5848 5848 5848 5848 5848 5849 5849 5849 5849 5849 5849 5849 5849 5849 5849 5848 5847 5846 5845 5844 5842 5841 5840 5838 5836 5835 5833 5832 5831 5830 5828 5827 5825 5824 5822 5820 5819 5817 5815
5830 5832 5834 5837 5838 5839 5841 5846 5842 5842 5842 5843 5843 5843 5843 5844 5844 5844 5844 5844 5845 5845 5845 5845 5844 5843 5842 5841 5840 5839 5838 5836 5835 5833 5832 5830 5828 5827 5826 5825 5824 5822 5821 5819 5817 5815 5814 5812 5811